Tracking 30995 objects as of 7-Jul-2025
HD Live streaming from Space Station
objects crossing your sky now

SL-14 DEB

Track SL-14 DEB now!
10-day predictions


NORAD ID: 45313
Int'l Code: 1991-056BB
Perigee: 1,033.1 km
Apogee: 1,174.1 km
Inclination: 82.6 °
Period: 107.2 minutes
Semi major axis: 7474 km
RCS: Unknown
Launch date: August 15, 1991
Source: Commonwealth of Independent States (former USSR) (CIS)
Launch site: PLESETSK MISSILE AND SPACE COMPLEX (PKMTR)

Note: This is SATELLITE DEBRIS
Your satellite tracking list
ONEWEB-0609
Track 1 satellite(s)




NASA's NSSDC Master Catalog

Two Line Element Set (TLE):
1 45313U 91056BB  25187.11753365  .00000912  00000-0  15267-2 0  9996
2 45313  82.5779 330.9606 0094303 351.6415   8.3146 13.43455227262106
Source of the keplerian elements: AFSPC